Time,TemperatureF,DewpointF,PressureIn,WindDirection,WindDirectionDegrees,WindSpeedMPH,WindSpeedGustMPH,Humidity,HourlyPrecipIn,Conditions,Clouds,dailyrainin,SoftwareType,DateUTC
2013-04-15 00:02:00,37.0,28.0,-100.00,South,185,3.0,6.0,70,0.00,,,-99.99,,2013-04-15 06:02:00,
2013-04-15 00:12:00,37.0,28.0,-100.00,SSW,195,0.0,3.0,71,0.00,,,-99.99,,2013-04-15 06:12:00,
2013-04-15 00:22:00,37.0,28.0,-100.00,SSW,195,0.0,3.0,71,0.00,,,-99.99,,2013-04-15 06:22:00,
2013-04-15 00:33:00,37.0,29.0,-100.00,NE,55,1.0,7.0,72,0.00,,,-99.99,,2013-04-15 06:33:00,
2013-04-15 00:42:00,37.0,29.0,-100.00,SSE,160,1.0,6.0,71,0.00,,,-99.99,,2013-04-15 06:42:00,
2013-04-15 00:52:00,37.0,28.0,-100.00,East,90,2.0,4.0,71,0.00,,,-99.99,,2013-04-15 06:52:00,
2013-04-15 01:02:00,37.0,28.0,-100.00,SSW,195,0.0,3.0,71,0.00,,,-99.99,,2013-04-15 07:02:00,
2013-04-15 01:42:00,37.0,30.0,-100.00,WSW,255,2.0,7.0,74,0.00,,,-99.99,,2013-04-15 07:42:00,
2013-04-15 01:52:00,37.0,30.0,-100.00,NE,55,1.0,6.0,74,0.00,,,-99.99,,2013-04-15 07:52:00,
2013-04-15 02:02:00,37.0,30.0,-100.00,SE,145,2.0,3.0,74,0.00,,,-99.99,,2013-04-15 08:02:00,
2013-04-15 02:13:00,38.0,30.0,-100.00,SSE,155,4.0,6.0,73,0.00,,,-99.99,,2013-04-15 08:13:00,
2013-04-15 02:22:00,38.0,30.0,-100.00,East,80,4.0,6.0,72,0.00,,,-99.99,,2013-04-15 08:22:00,
2013-04-15 02:33:00,38.0,30.0,-100.00,SSE,160,5.0,7.0,71,0.00,,,-99.99,,2013-04-15 08:33:00,
2013-04-15 02:42:00,38.0,30.0,-100.00,WNW,285,4.0,8.0,71,0.00,,,-99.99,,2013-04-15 08:42:00,
2013-04-15 02:52:00,38.0,29.0,-100.00,NNW,330,6.0,10.0,70,0.00,,,-99.99,,2013-04-15 08:52:00,
2013-04-15 03:02:00,38.0,28.0,-100.00,NNW,335,1.0,7.0,66,0.00,,,-99.99,,2013-04-15 09:02:00,
2013-04-15 03:12:00,38.0,28.0,-100.00,WSW,255,4.0,6.0,66,0.00,,,-99.99,,2013-04-15 09:12:00,
2013-04-15 03:22:00,38.0,28.0,-100.00,NNW,335,4.0,9.0,66,0.00,,,-99.99,,2013-04-15 09:22:00,
2013-04-15 03:32:00,39.0,28.0,-100.00,WNW,295,4.0,6.0,66,0.00,,,-99.99,,2013-04-15 09:32:00,
2013-04-15 03:43:00,38.0,28.0,-100.00,North,0,4.0,8.0,65,0.00,,,-99.99,,2013-04-15 09:43:00,
2013-04-15 03:53:00,38.0,28.0,-100.00,NW,305,1.0,6.0,66,0.00,,,-99.99,,2013-04-15 09:53:00,
2013-04-15 04:02:00,38.0,28.0,-100.00,NW,305,1.0,6.0,66,0.00,,,-99.99,,2013-04-15 10:02:00,
2013-04-15 04:13:00,38.0,31.0,-100.00,West,275,6.0,7.0,75,0.00,,,-99.99,,2013-04-15 10:13:00,
2013-04-15 04:23:00,37.0,31.0,-100.00,WSW,240,4.0,9.0,79,0.00,,,-99.99,,2013-04-15 10:23:00,
2013-04-15 04:33:00,37.0,32.0,-100.00,SW,235,5.0,7.0,81,0.00,,,-99.99,,2013-04-15 10:33:00,
2013-04-15 04:42:00,37.0,32.0,-100.00,NW,315,4.0,9.0,83,0.00,,,-99.99,,2013-04-15 10:42:00,
2013-04-15 04:52:00,36.0,32.0,-100.00,NNW,330,6.0,12.0,86,0.00,,,-99.99,,2013-04-15 10:52:00,
2013-04-15 05:03:00,35.0,32.0,-100.00,WNW,300,12.0,17.0,88,0.00,,,-99.99,,2013-04-15 11:03:00,
2013-04-15 05:12:00,33.0,31.0,-100.00,NW,315,6.0,17.0,89,0.00,,,-99.99,,2013-04-15 11:12:00,
2013-04-15 05:22:00,33.0,31.0,-100.00,NW,325,6.0,11.0,90,0.00,,,-99.99,,2013-04-15 11:22:00,
2013-04-15 05:32:00,33.0,31.0,-100.00,WNW,285,6.0,7.0,90,0.00,,,-99.99,,2013-04-15 11:32:00,
2013-04-15 05:43:00,33.0,31.0,-100.00,WNW,285,8.0,11.0,91,0.00,,,-99.99,,2013-04-15 11:43:00,
2013-04-15 05:53:00,33.0,31.0,-100.00,WNW,295,9.0,13.0,92,0.00,,,-99.99,,2013-04-15 11:53:00,
2013-04-15 06:04:00,33.0,31.0,-100.00,NNW,335,4.0,15.0,92,0.00,,,-99.99,,2013-04-15 12:04:00,
2013-04-15 06:14:00,33.0,31.0,-100.00,West,275,6.0,10.0,92,0.00,,,-99.99,,2013-04-15 12:14:00,
2013-04-15 06:23:00,33.0,31.0,-100.00,NE,35,1.0,5.0,93,0.00,,,-99.99,,2013-04-15 12:23:00,
2013-04-15 06:33:00,33.0,31.0,-100.00,West,280,0.0,7.0,93,0.00,,,-99.99,,2013-04-15 12:33:00,
2013-04-15 06:43:00,33.0,31.0,-100.00,South,175,1.0,3.0,93,0.00,,,-99.99,,2013-04-15 12:43:00,
2013-04-15 06:52:00,33.0,31.0,-100.00,NNW,335,0.0,6.0,93,0.00,,,-99.99,,2013-04-15 12:52:00,
2013-04-15 07:04:00,33.0,31.0,-100.00,NNW,330,3.0,11.0,93,0.00,,,-99.99,,2013-04-15 13:04:00,
2013-04-15 07:12:00,33.0,31.0,-100.00,West,280,9.0,11.0,94,0.00,,,-99.99,,2013-04-15 13:12:00,
2013-04-15 07:23:00,33.0,31.0,-100.00,North,0,1.0,10.0,94,0.00,,,-99.99,,2013-04-15 13:23:00,
2013-04-15 07:33:00,33.0,32.0,-100.00,WNW,295,7.0,9.0,94,0.00,,,-99.99,,2013-04-15 13:33:00,
2013-04-15 07:42:00,33.0,32.0,-100.00,West,280,7.0,12.0,94,0.00,,,-99.99,,2013-04-15 13:42:00,
2013-04-15 07:53:00,33.0,32.0,-100.00,North,0,1.0,10.0,94,0.00,,,-99.99,,2013-04-15 13:53:00,
2013-04-15 08:05:00,33.0,32.0,-100.00,West,275,0.0,0.0,94,0.00,,,-99.99,,2013-04-15 14:05:00,
2013-04-15 08:12:00,34.0,32.0,-100.00,NW,325,1.0,4.0,94,0.00,,,-99.99,,2013-04-15 14:12:00,
2013-04-15 08:22:00,34.0,32.0,-100.00,NW,320,4.0,8.0,94,0.00,,,-99.99,,2013-04-15 14:22:00,
2013-04-15 08:33:00,33.0,32.0,-100.00,NW,305,7.0,14.0,94,0.00,,,-99.99,,2013-04-15 14:33:00,
2013-04-15 08:44:00,33.0,31.0,-100.00,WNW,300,5.0,15.0,94,0.00,,,-99.99,,2013-04-15 14:44:00,
2013-04-15 08:53:00,33.0,31.0,-100.00,NNW,345,6.0,11.0,94,0.10,,,-99.99,,2013-04-15 14:53:00,
2013-04-15 09:03:00,33.0,31.0,-100.00,North,0,5.0,12.0,94,0.00,,,-99.99,,2013-04-15 15:03:00,
2013-04-15 09:13:00,33.0,32.0,-100.00,North,350,6.0,12.0,94,0.00,,,-99.99,,2013-04-15 15:13:00,
2013-04-15 09:23:00,33.0,32.0,-100.00,North,0,5.0,12.0,94,0.00,,,-99.99,,2013-04-15 15:23:00,
2013-04-15 09:35:00,34.0,32.0,-100.00,West,280,2.0,12.0,94,0.00,,,-99.99,,2013-04-15 15:35:00,
2013-04-15 09:44:00,33.0,32.0,-100.00,WNW,295,3.0,16.0,94,0.00,,,-99.99,,2013-04-15 15:44:00,
2013-04-15 09:53:00,33.0,32.0,-100.00,West,280,4.0,11.0,94,0.10,,,-99.99,,2013-04-15 15:53:00,
2013-04-15 10:04:00,33.0,32.0,-100.00,West,280,4.0,12.0,94,0.10,,,-99.99,,2013-04-15 16:04:00,
2013-04-15 10:13:00,33.0,32.0,-100.00,West,265,2.0,9.0,94,0.00,,,-99.99,,2013-04-15 16:13:00,
2013-04-15 10:24:00,33.0,32.0,-100.00,North,350,1.0,8.0,94,0.00,,,-99.99,,2013-04-15 16:24:00,
2013-04-15 10:33:00,33.0,32.0,-100.00,WNW,295,5.0,9.0,94,0.00,,,-99.99,,2013-04-15 16:33:00,
2013-04-15 10:43:00,33.0,32.0,-100.00,WSW,255,0.0,6.0,94,0.00,,,-99.99,,2013-04-15 16:43:00,
2013-04-15 10:53:00,33.0,32.0,-100.00,WSW,245,2.0,7.0,94,0.00,,,-99.99,,2013-04-15 16:53:00,
2013-04-15 11:14:00,33.0,32.0,-100.00,NNW,335,3.0,9.0,94,0.10,,,-99.99,,2013-04-15 17:14:00,
2013-04-15 11:21:00,33.0,32.0,-100.00,NNW,340,1.0,12.0,94,0.10,,,-99.99,,2013-04-15 17:21:00,
2013-04-15 11:33:00,33.0,32.0,-100.00,NW,325,4.0,9.0,94,0.00,,,-99.99,,2013-04-15 17:33:00,
2013-04-15 11:43:00,33.0,32.0,-100.00,NW,305,2.0,9.0,94,0.00,,,-99.99,,2013-04-15 17:43:00,
2013-04-15 11:52:00,33.0,32.0,-100.00,South,170,0.0,6.0,94,0.10,,,-99.99,,2013-04-15 17:52:00,
2013-04-15 12:03:00,33.0,32.0,-100.00,NW,315,4.0,9.0,94,0.00,,,-99.99,,2013-04-15 18:03:00,
2013-04-15 12:12:00,33.0,31.0,-100.00,NW,305,7.0,15.0,94,0.10,,,-99.99,,2013-04-15 18:12:00,
2013-04-15 12:23:00,32.0,31.0,-100.00,WNW,300,9.0,16.0,94,0.00,,,-99.99,,2013-04-15 18:23:00,
2013-04-15 12:32:00,32.0,31.0,-100.00,NW,315,9.0,18.0,94,0.10,,,-99.99,,2013-04-15 18:32:00,
2013-04-15 12:42:00,32.0,31.0,-100.00,WNW,300,7.0,12.0,94,0.00,,,-99.99,,2013-04-15 18:42:00,
2013-04-15 12:52:00,32.0,31.0,-100.00,West,280,0.0,11.0,94,0.00,,,-99.99,,2013-04-15 18:52:00,
2013-04-15 13:02:00,32.0,31.0,-100.00,WNW,290,0.0,0.0,94,0.10,,,-99.99,,2013-04-15 19:02:00,
2013-04-15 13:12:00,32.0,31.0,-100.00,West,280,0.0,0.0,94,0.00,,,-99.99,,2013-04-15 19:12:00,
2013-04-15 13:22:00,32.0,31.0,-100.00,NW,305,0.0,0.0,94,0.10,,,-99.99,,2013-04-15 19:22:00,
2013-04-15 13:51:00,33.0,31.0,-100.00,West,275,0.0,0.0,94,0.00,,,-99.99,,2013-04-15 19:51:00,
2013-04-15 13:58:00,33.0,32.0,-100.00,NNW,330,0.0,0.0,94,0.00,,,-99.99,,2013-04-15 19:58:00,
2013-04-15 14:02:00,33.0,31.0,-100.00,WNW,295,0.0,0.0,94,0.00,,,-99.99,,2013-04-15 20:02:00,
2013-04-15 14:11:00,33.0,31.0,-100.00,WNW,285,0.0,0.0,94,0.00,,,-99.99,,2013-04-15 20:11:00,
2013-04-15 14:22:00,33.0,31.0,-100.00,North,350,0.0,0.0,94,0.00,,,-99.99,,2013-04-15 20:22:00,
2013-04-15 14:32:00,33.0,31.0,-100.00,West,280,0.0,0.0,94,0.00,,,-99.99,,2013-04-15 20:32:00,
2013-04-15 14:42:00,33.0,31.0,-100.00,North,10,0.0,0.0,94,0.00,,,-99.99,,2013-04-15 20:42:00,
2013-04-15 14:52:00,33.0,32.0,-100.00,NNW,345,0.0,0.0,95,0.00,,,-99.99,,2013-04-15 20:52:00,
2013-04-15 15:02:00,34.0,33.0,-100.00,NNW,330,0.0,0.0,95,0.00,,,-99.99,,2013-04-15 21:02:00,
2013-04-15 15:12:00,33.0,32.0,-100.00,NW,310,0.0,0.0,95,0.10,,,-99.99,,2013-04-15 21:12:00,
2013-04-15 15:22:00,34.0,33.0,-100.00,ENE,65,0.0,0.0,95,0.00,,,-99.99,,2013-04-15 21:22:00,
2013-04-15 15:32:00,34.0,33.0,-100.00,West,265,0.0,0.0,95,0.00,,,-99.99,,2013-04-15 21:32:00,
2013-04-15 15:43:00,33.0,32.0,-100.00,North,0,1.0,4.0,95,0.00,,,-99.99,,2013-04-15 21:43:00,
2013-04-15 15:53:00,33.0,32.0,-100.00,WNW,290,4.0,7.0,95,0.00,,,-99.99,,2013-04-15 21:53:00,
2013-04-15 16:02:00,33.0,32.0,-100.00,SSE,165,0.0,4.0,95,0.00,,,-99.99,,2013-04-15 22:02:00,
2013-04-15 16:13:00,34.0,33.0,-100.00,NNW,335,0.0,0.0,95,0.00,,,-99.99,,2013-04-15 22:13:00,
2013-04-15 16:23:00,34.0,33.0,-100.00,West,265,0.0,0.0,95,0.00,,,-99.99,,2013-04-15 22:23:00,
2013-04-15 16:33:00,33.0,32.0,-100.00,WNW,290,0.0,0.0,95,0.00,,,-99.99,,2013-04-15 22:33:00,
2013-04-15 16:42:00,33.0,32.0,-100.00,North,0,0.0,2.0,95,0.00,,,-99.99,,2013-04-15 22:42:00,
2013-04-15 16:52:00,32.0,31.0,-100.00,WNW,285,0.0,3.0,95,0.00,,,-99.99,,2013-04-15 22:52:00,
2013-04-15 17:02:00,33.0,32.0,-100.00,NNW,330,0.0,0.0,95,0.00,,,-99.99,,2013-04-15 23:02:00,
2013-04-15 17:12:00,33.0,31.0,-100.00,West,270,0.0,1.0,95,0.00,,,-99.99,,2013-04-15 23:12:00,
2013-04-15 17:22:00,33.0,31.0,-100.00,NNW,335,0.0,0.0,95,0.00,,,-99.99,,2013-04-15 23:22:00,
2013-04-15 17:32:00,33.0,31.0,-100.00,North,0,0.0,0.0,95,0.00,,,-99.99,,2013-04-15 23:32:00,
2013-04-15 17:42:00,33.0,32.0,-100.00,SSE,155,0.0,0.0,95,0.00,,,-99.99,,2013-04-15 23:42:00,
2013-04-15 17:52:00,32.0,31.0,-100.00,NE,45,0.0,0.0,95,0.00,,,-99.99,,2013-04-15 23:52:00,
2013-04-15 18:02:00,32.0,31.0,-100.00,East,95,0.0,0.0,95,0.00,,,-99.99,,2013-04-16 00:02:00,
2013-04-15 18:12:00,32.0,31.0,-100.00,East,85,1.0,4.0,95,0.00,,,-99.99,,2013-04-16 00:12:00,
2013-04-15 18:22:00,33.0,31.0,-100.00,NE,55,0.0,0.0,95,0.00,,,-99.99,,2013-04-16 00:22:00,
2013-04-15 18:32:00,32.0,31.0,-100.00,East,85,0.0,0.0,95,0.00,,,-99.99,,2013-04-16 00:32:00,
2013-04-15 18:42:00,33.0,31.0,-100.00,South,170,0.0,0.0,95,0.00,,,-99.99,,2013-04-16 00:42:00,
2013-04-15 18:52:00,32.0,31.0,-100.00,East,85,0.0,0.0,95,0.00,,,-99.99,,2013-04-16 00:52:00,
2013-04-15 19:02:00,32.0,31.0,-100.00,East,100,0.0,0.0,95,0.00,,,-99.99,,2013-04-16 01:02:00,
2013-04-15 19:12:00,32.0,31.0,-100.00,WSW,245,0.0,0.0,95,0.00,,,-99.99,,2013-04-16 01:12:00,
2013-04-15 19:22:00,33.0,31.0,-100.00,SSE,160,0.0,0.0,95,0.00,,,-99.99,,2013-04-16 01:22:00,
2013-04-15 19:32:00,32.0,31.0,-100.00,East,95,0.0,0.0,95,0.00,,,-99.99,,2013-04-16 01:32:00,
2013-04-15 19:42:00,32.0,31.0,-100.00,NNE,30,2.0,4.0,95,0.00,,,-99.99,,2013-04-16 01:42:00,
2013-04-15 19:52:00,32.0,31.0,-100.00,East,95,3.0,6.0,95,0.00,,,-99.99,,2013-04-16 01:52:00,
2013-04-15 20:02:00,32.0,31.0,-100.00,ESE,115,3.0,7.0,95,0.00,,,-99.99,,2013-04-16 02:02:00,
2013-04-15 20:12:00,32.0,31.0,-100.00,ESE,120,0.0,3.0,95,0.00,,,-99.99,,2013-04-16 02:12:00,
2013-04-15 20:22:00,31.0,30.0,-100.00,SSE,150,0.0,0.0,95,0.00,,,-99.99,,2013-04-16 02:22:00,
2013-04-15 20:32:00,31.0,30.0,-100.00,ESE,105,0.0,0.0,95,0.00,,,-99.99,,2013-04-16 02:32:00,
2013-04-15 20:42:00,31.0,29.0,-100.00,SSE,150,0.0,0.0,95,0.00,,,-99.99,,2013-04-16 02:42:00,
2013-04-15 20:52:00,30.0,29.0,-100.00,South,175,0.0,0.0,95,0.00,,,-99.99,,2013-04-16 02:52:00,
2013-04-15 21:02:00,30.0,29.0,-100.00,ENE,70,0.0,0.0,95,0.00,,,-99.99,,2013-04-16 03:02:00,
2013-04-15 21:12:00,30.0,29.0,-100.00,SE,135,0.0,0.0,95,0.00,,,-99.99,,2013-04-16 03:12:00,
2013-04-15 21:22:00,30.0,28.0,-100.00,SE,140,0.0,0.0,95,0.00,,,-99.99,,2013-04-16 03:22:00,
2013-04-15 21:33:00,30.0,29.0,-100.00,South,175,0.0,4.0,95,0.00,,,-99.99,,2013-04-16 03:33:00,
2013-04-15 21:43:00,30.0,29.0,-100.00,SE,145,0.0,3.0,95,0.00,,,-99.99,,2013-04-16 03:43:00,
2013-04-15 21:52:00,30.0,28.0,-100.00,SSE,165,0.0,3.0,95,0.00,,,-99.99,,2013-04-16 03:52:00,
2013-04-15 22:03:00,29.0,28.0,-100.00,SE,140,0.0,0.0,95,0.00,,,-99.99,,2013-04-16 04:03:00,
2013-04-15 22:12:00,29.0,28.0,-100.00,SE,140,1.0,4.0,95,0.00,,,-99.99,,2013-04-16 04:12:00,
2013-04-15 22:23:00,28.0,27.0,-100.00,South,170,0.0,4.0,95,0.00,,,-99.99,,2013-04-16 04:23:00,
2013-04-15 22:33:00,28.0,27.0,-100.00,SSE,155,0.0,3.0,95,0.00,,,-99.99,,2013-04-16 04:33:00,
2013-04-15 22:42:00,28.0,26.0,-100.00,SSE,155,2.0,3.0,95,0.00,,,-99.99,,2013-04-16 04:42:00,
2013-04-15 22:52:00,28.0,26.0,-100.00,SSE,160,2.0,4.0,95,0.00,,,-99.99,,2013-04-16 04:52:00,
2013-04-15 23:02:00,27.0,26.0,-100.00,South,175,0.0,2.0,95,0.00,,,-99.99,,2013-04-16 05:02:00,
2013-04-15 23:12:00,27.0,26.0,-100.00,West,260,0.0,1.0,95,0.00,,,-99.99,,2013-04-16 05:12:00,
2013-04-15 23:22:00,27.0,26.0,-100.00,SSW,205,1.0,5.0,95,0.00,,,-99.99,,2013-04-16 05:22:00,
2013-04-15 23:32:00,27.0,26.0,-100.00,SSW,205,2.0,4.0,95,0.00,,,-99.99,,2013-04-16 05:32:00,
2013-04-15 23:42:00,28.0,26.0,-100.00,South,190,2.0,4.0,95,0.00,,,-99.99,,2013-04-16 05:42:00,
2013-04-15 23:52:00,28.0,26.0,-100.00,SSE,160,1.0,6.0,95,0.00,,,-99.99,,2013-04-16 05:52:00,